Location: Kermapucano
(48.0667°N, 3.3000°W)
Time: 20:19:50
(UTC+00:00)

CENTAUR R/B - Pass Details

Date: 29 November 2020
Orbit: 750 x 1438 km, 63.4° (Epoch: 11 January)

Event Time Altitude Azimuth Distance (km) Brightness Sun altitude
Exits shadow 05:48:51 24° 268° (W) 2,539 4.1 -17.9°
Maximum altitude 05:50:37 26° 250° (WSW) 2,478 4.1 -17.6°
Drops below altitude 10° 05:57:24 10° 200° (SSW) 3,538 5.3 -16.5°
Sets 06:00:58 0° 188° (S) 4,511 6.0 -16.0°
